Location: Catstown
(52.4386°N, 7.2633°W)
Time: 03:28:43
(UTC+00:00)

Cosmos 1025 Rocket - Pass Details

Date: 18 September 2020
Orbit: 595 x 617 km, 82.5° (Epoch: 19 October)

Event Time Altitude Azimuth Distance (km) Brightness Sun altitude
Rises 20:21:36 0° 346° (NNW) 2,885 7.1 -16.4°
Reaches altitude 10° 20:23:51 10° 342° (NNW) 1,979 6.3 -16.7°
Maximum altitude 20:28:09 57° 264° (W) 729 3.7 -17.3°
Drops below altitude 10° 20:32:25 10° 186° (S) 1,974 5.4 -17.8°
Enters shadow 20:33:05 - 185° (S) 2,237 5.7 -17.9°
